Location: Bonneville
(50.0822°N, 2.2493°E)
Time: 01:07:12
(UTC+00:00)

Daily predictions for brighter satellites

Satellite Brightness Start Highest point End
(mag) Time Altitude Azimuth Time Altitude Azimuth Time Altitude Azimuth
Cosmos 2219 Rocket 4.4 03:10:32 20° ENE 03:10:32 20° ENE 03:12:31 10° NE
Cosmos 2322 Rocket 4.4 03:35:08 17° NNE 03:35:08 17° NNE 03:36:21 10° NNE
CZ-4C R/B 3.8 03:38:51 35° NNE 03:39:11 36° NNE 03:46:21 10° E
ATLAS 3B R/B 3.5 03:41:57 47° NNE 03:41:57 47° NNE 03:47:18 10° NE
H-2A R/B 4.0 03:45:34 10° NE 03:49:34 24° E 03:53:35 10° SE
SL-16 R/B 4.3 04:04:09 16° N 04:04:09 16° N 04:05:25 10° NNE
COSMOS 2428 3.5 04:04:27 45° SE 04:05:03 47° ESE 04:10:31 10° NE
Cosmos 2333 Rocket 3.6 04:08:53 30° NNE 04:08:53 30° NNE 04:11:45 10° NNE
ARIANE 5 R/B 4.1 04:01:17 10° NNE 04:06:01 34° E 04:10:44 10° SSE
CENTAUR R/B 3.6 04:04:39 43° NNW 04:07:01 55° NE 04:15:48 10° ESE
BREEZE M DEB (TANK) 3.9 04:09:07 69° S 04:09:07 69° S 04:24:29 10° ESE
Cosmos 2278 Rocket 2.7 04:11:18 54° NE 04:11:20 54° NE 04:16:51 10° SE
Cosmos 2221 4.4 04:14:15 28° ESE 04:14:15 28° ESE 04:16:45 10° SE
Cosmos 2237 Rocket 4.2 04:15:51 10° SSE 04:20:26 26° ESE 04:25:02 10° NE
Cosmos 1331 Rocket 4.4 04:23:11 58° ESE 04:23:11 58° ESE 04:27:29 10° SSE
Cosmos 1048 Rocket 4.4 04:24:55 60° ESE 04:24:56 60° ESE 04:29:58 10° NNE
Cosmos 1092 Rocket 4.1 04:22:08 22° N 04:26:17 71° ENE 04:32:32 10° SSE
SL-08 R/B 4.4 04:25:50 10° SE 04:30:11 41° ENE 04:31:40 31° NNE
Lacrosse 5 rocket 2.6 04:35:42 40° ENE 04:35:42 40° ENE 04:38:35 10° ENE
Cosmos 2322 3.6 04:34:58 86° NNE 04:34:58 86° NNE 04:40:33 10° NNE
SKYMED 2 4.2 04:32:29 10° SSE 04:36:30 55° E 04:36:30 55° E
Cosmos 1428 Rocket 4.3 04:38:34 56° NNW 04:39:56 80° W 04:46:03 10° S
USA 267 3.7 04:33:58 10° E 04:40:16 52° N 04:41:48 44° NNW
Cosmos 1634 Rocket 4.5 04:34:42 10° S 04:40:46 60° E 04:46:55 10° NNE
Cosmos 1943 Rocket 2.7 04:46:58 32° N 04:49:19 53° NE 04:54:42 10° SE
Cosmos 2219 Rocket 2.6 04:52:17 45° NNW 04:52:17 45° NNW 04:56:49 10° NNE
Cosmos 2360 Rocket 3.6 04:53:37 24° N 04:53:37 24° N 04:56:35 10° NNE
IRS-P3 Rocket 4.4 04:47:08 10° NNE 04:52:23 81° WNW 04:54:10 43° SSW
Cosmos 1953 Rocket 4.1 04:48:46 10° S 04:53:10 60° E 04:57:36 10° NNE
Meteor 2-3 Rocket 3.5 04:52:55 28° SSW 04:55:55 74° WNW 05:01:33 10° N
SL-19 R/B 4.2 04:53:22 10° NNE 04:58:49 78° ESE 05:04:03 10° SSW
USA 281 3.5 04:53:34 10° NNE 05:00:07 66° ESE 05:06:38 10° SSW
Cosmos 2285 Rocket 4.4 04:54:13 10° S 05:00:28 64° ESE 05:06:47 10° NNE
USA 229 DEB 3.5 04:59:43 50° W 05:01:23 67° NW 05:08:19 10° NE
USA 229 3.5 04:59:44 49° WSW 05:01:25 68° NW 05:08:22 10° NE
Cosmos 1110 Rocket 4.2 05:03:19 52° SW 05:03:19 52° SW 05:08:03 10° S
Cosmos 1627 Rocket 4.4 05:00:05 12° NNW 05:06:05 66° W 05:12:20 10° S
NOSS 3-1 (C) 4.4 05:06:00 29° NNW 05:06:34 29° NNW 05:12:24 10° NE
IRS-1C 4.0 05:01:49 10° NNE 05:07:10 76° WNW 05:12:29 10° SSW
Cosmos 494 Rocket 4.1 05:08:36 51° NW 05:08:36 51° NW 05:13:15 10° NNE
NOSS 3-1 (A) 4.0 05:10:44 35° NW 05:11:14 36° NNW 05:17:17 10° NE
SJ-12 4.3 05:07:52 10° NNE 05:11:53 61° ESE 05:15:52 10° S
JB-3 4.3 05:08:50 10° SSE 05:12:53 87° ENE 05:13:54 50° N
ATLAS 5 CENTAUR R/B 3.8 05:12:48 10° SSE 05:15:16 19° ESE 05:17:53 10° ENE
Cosmos 2322 Rocket 3.8 05:16:57 19° NNW 05:16:57 19° NNW 05:19:49 10° N
CZ-2D R/B 3.1 05:15:52 10° NNE 05:19:47 79° WNW 05:23:43 10° SSW
Cosmos 1500 3.5 05:17:48 10° S 05:21:17 58° E 05:24:47 10° NNE
CZ-3 R/B 4.3 05:09:37 13° WSW 05:21:43 24° SSW 05:28:19 10° SSE
ERS-1 4.3 05:16:52 10° N 05:21:48 67° WNW 05:26:43 10° SSW
Cosmos 1302 Rocket 3.9 05:19:21 31° NNW 05:21:57 81° WSW 05:27:10 10° SSE
Cosmos 1437 Rocket 2.6 05:21:00 10° S 05:24:40 80° E 05:28:22 10° NNE
COSMO-SKYMED 1 2.7 05:20:37 10° S 05:24:50 51° W 05:25:07 50° W
CZ-4C R/B 3.0 05:23:59 25° NW 05:28:35 84° NE 05:37:07 10° SE
H-2A R/B 2.0 05:24:28 10° N 05:29:15 52° WNW 05:34:06 10° SW
Cosmos 2369 Rocket 3.6 05:24:42 11° NNW 05:29:36 33° NE 05:34:43 10° ESE
ARGOS 3.2 05:25:57 10° NNE 05:31:22 80° ESE 05:36:44 10° SSW
ATLAS 3B R/B 3.7 05:29:12 27° NW 05:31:47 33° NNW 05:38:38 10° NE
Cosmos 1842 Rocket 3.5 05:31:56 21° NNW 05:34:52 70° W 05:39:18 10° S
BREEZE-M DEB (TANK) 2.8 05:35:17 40° W 05:36:29 70° SSW 05:44:54 10° ESE
Cosmos 1992 Rocket 4.2 05:32:12 15° NNW 05:36:34 71° ENE 05:41:46 10° SSE
NOSS 0 Rocket 3.9 05:30:59 10° SW 05:37:13 73° WNW 05:43:30 10° NNE
Cosmos 1602 4.3 05:34:00 10° S 05:37:35 54° E 05:41:12 10° NNE
IRS-P3 4.2 05:33:18 10° N 05:38:29 53° WNW 05:43:37 10° SW
Cosmos 1980 3.6 05:33:58 10° SSW 05:39:38 84° WNW 05:45:22 10° NNE
CZ-2D R/B 3.8 05:36:21 10° NNE 05:40:00 57° E 05:43:35 10° S
Meteor 2-6 Rocket 4.2 05:38:32 10° NNW 05:44:14 62° W 05:49:43 10° S
NOSS 3-2 (C) 4.2 05:39:17 19° NW 05:44:52 71° NE 05:53:23 10° SE
ARIANE 5 R/B 2.9 05:40:17 10° N 05:45:09 41° WNW 05:50:02 10° SW
Geosat 4.1 05:40:07 10° NNE 05:45:10 80° ESE 05:50:11 10° SSW
Cosmos 1076 Rocket 3.4 05:40:55 10° SSW 05:45:13 73° W 05:49:36 10° N
IKONOS-2 4.4 05:41:48 10° SSE 05:45:58 88° WSW 05:50:07 10° NNW
SL-16 R/B 4.1 05:46:01 12° NNW 05:46:07 12° NNW 05:48:24 10° N
DELTA 2 DEB (DPAF) 4.1 05:44:18 10° SSE 05:48:36 82° ENE 05:52:54 10° NNW
COSMOS 2428 3.2 05:46:32 23° W 05:49:26 38° NW 05:54:47 10° NNE
FengYun 1-2 T 4.2 05:44:22 10° N 05:49:56 66° WNW 05:55:25 10° SSW
Cosmos 2221 3.7 05:51:00 23° WSW 05:51:00 23° WSW 05:53:34 10° SW
Cosmos 2333 Rocket 3.6 05:50:54 19° NW 05:51:22 19° NW 05:55:27 10° N
CZ-2C R/B 3.5 05:48:50 10° NNE 05:52:33 55° E 05:56:18 10° S
GENESIS II 4.0 05:50:03 13° SW 05:53:29 76° NW 05:57:21 10° NE
Cosmos 2278 Rocket 3.0 05:53:11 24° WNW 05:55:08 30° WSW 05:59:59 10° SSW
CENTAUR R/B 3.4 05:51:49 18° NW 05:58:09 61° SW 06:07:05 10° SSE
Cosmos 2266 Rocket 3.9 05:54:06 10° N 06:00:12 83° W 06:06:22 10° S
Helios 1B rocket 2.3 05:58:30 10° NNE 06:02:30 89° ESE 06:06:29 10° SSW
SeaSat 1 3.4 05:59:16 10° ESE 06:03:56 45° NE 06:08:37 10° NNW
Cosmos 2237 Rocket 2.2 05:58:29 10° SW 06:04:06 61° NW 06:09:43 10° NNE
Cosmos 1378 3.7 06:03:20 27° WNW 06:04:09 31° W 06:07:14 10° SSW
NOSS 3-2 (A) 4.2 06:00:41 17° NW 06:06:42 64° SW 06:15:14 10° SSE
SL-08 R/B 4.2 06:04:03 10° SSW 06:08:03 28° W 06:10:33 18° NW
Intercosmos 25 Rocket 3.6 06:07:24 10° SSW 06:11:08 78° WNW 06:16:58 10° N
Lacrosse 5 rocket 2.2 06:10:48 21° WNW 06:13:12 37° NNW 06:17:19 10° NE
CZ-3B R/B 4.3 06:08:37 18° WNW 06:13:16 65° SSW 06:37:11 10° SE
Meteor 2-12 Rocket 4.4 06:09:53 10° NNW 06:15:55 64° W 06:21:57 10° S
Spot 4 Rocket 4.2 06:10:59 10° N 06:15:58 50° WNW 06:20:54 10° SW
Cosmos 2151 3.7 06:12:58 10° SW 06:16:41 30° WNW 06:20:27 10° N
Cosmos 2297 3.7 06:15:54 10° NNW 06:21:36 90° NE 06:27:14 10° SSE
Cosmos 1461 2.9 06:17:31 10° SW 06:21:58 77° NW 06:26:21 10° NE
USA 267 3.3 06:16:26 10° ESE 06:23:00 86° NNE 06:29:08 12° WNW
Cosmos 1151 Rocket 3.0 06:18:52 10° N 06:23:12 87° E 06:27:33 10° S
Cosmos 1666 3.2 06:22:32 10° SW 06:25:44 32° WNW 06:28:57 10° N
PSLV R/B 4.1 06:22:07 10° N 06:26:05 36° WNW 06:30:00 10° SW
Meteor 1-31 Rocket 2.7 06:28:06 10° NNE 06:31:55 89° W 06:35:43 10° SSW
Cosmos 1943 Rocket 3.0 06:28:31 12° NW 06:32:47 29° WSW 06:37:27 10° SSW
Meteor 1-25 Rocket 4.4 06:27:21 10° S 06:33:10 83° E 06:38:58 10° NNE
USA 238 DEB 4.0 06:27:40 10° NW 06:34:58 84° NE 06:42:48 10° SE
USA 238 4.0 06:27:44 10° NW 06:35:02 84° NE 06:42:50 10° SE
ERS-2 2.4 06:33:28 10° N 06:36:03 28° WNW 06:38:35 10° SW
Cosmos 2219 Rocket 3.8 06:34:02 12° WNW 06:36:37 15° NNW 06:39:57 10° N
Cosmos 2360 Rocket 4.1 06:35:56 10° NW 06:37:34 11° NNW 06:39:12 10° N
Cosmos 1269 Rocket 4.0 06:35:39 10° SSW 06:40:54 72° WNW 06:46:12 10° NNE
USA 281 3.8 06:38:28 10° NNE 06:44:17 35° NW 06:50:06 10° WSW
Meteor 1-27 Rocket 3.9 06:41:07 10° NNW 06:46:27 49° W 06:51:43 10° SSW
SMAP 3.1 06:42:53 10° N 06:47:30 62° WNW 06:52:05 10° SSW
Okean 1 3.5 06:44:48 10° NNW 06:48:30 46° W 06:52:10 10° SSW
AQUARIUS 4.1 06:47:12 10° N 06:51:38 69° WNW 06:56:04 10° SSW
Meteor 1-20 Rocket 4.2 06:46:48 10° SSW 06:52:12 62° WNW 06:57:39 10° N
Meteor 2-4 Rocket 4.0 06:47:06 10° N 06:52:54 81° E 06:58:48 10° SSE
CZ-4C R/B 3.7 06:51:49 10° S 06:55:54 51° W 07:00:03 10° NNW
Cosmos 1328 Rocket 3.6 06:51:38 10° N 06:56:06 89° E 07:00:32 10° S
Cosmos 2084 Rocket 4.2 06:54:00 10° SSW 06:58:06 56° SE 07:02:02 10° NE
ATLAS 5 CENTAUR R/B 1.3 06:55:29 10° WSW 06:58:52 49° NW 07:02:46 10° NE
CORIOLIS 4.2 06:54:24 10° N 06:59:46 61° WNW 07:05:07 10° SSW
NOSS 2-1 (E) 3.4 06:56:39 10° SSW 06:59:50 58° SE 07:02:51 10° NE
